Wind_Speed
40 39 37 36 34 30 27 26 24 22 22 26 29 30 29 29 30 31 31 30 30 29 28 27 26 26 26 26 26 25 25 25 24 24 22 20 19 19 19 18 17 17 17 16 15 15 15 15 16 17 17 17 17 17 18 19 18 17 16 14 13 12 12
40 39 38 38 36 33 29 27 25 22 22 24 28 31 31 30 29 30 30 29 29 29 29 28 27 26 26 25 26 26 25 25 25 25 24 22 21 20 20 19 18 17 16 16 16 16 17 17 16 17 18 19 17 17 18 18 18 18 17 15 14 14 14
42 40 40 39 39 35 31 29 25 23 23 23 26 31 32 32 30 28 28 28 29 30 29 29 28 27 25 25 26 26 26 26 25 25 25 23 22 20 20 20 19 17 17 17 17 18 19 19 18 17 18 19 18 17 17 16 16 17 17 16 15 15 15
42 42 40 39 40 38 33 30 25 23 23 22 24 27 29 30 30 29 28 27 28 30 30 29 28 27 26 26 26 27 27 27 26 25 24 23 22 21 20 20 20 18 17 18 19 20 21 21 19 16 16 17 16 15 15 15 14 14 15 15 15 15 16
41 42 41 40 41 40 36 31 25 23 23 22 22 24 25 25 28 30 30 29 29 29 29 29 29 28 28 28 27 27 27 27 27 25 24 23 22 22 21 21 20 19 17 17 19 20 21 21 19 16 15 14 13 12 12 12 11 11 11 12 13 14 16
41 44 44 43 42 41 38 31 26 23 23 24 22 22 24 24 26 29 30 30 30 29 30 31 30 29 28 28 27 27 28 27 27 26 25 24 23 23 21 20 20 19 18 17 18 20 21 20 19 16 14 12 11 10 8 8 8 8 8 9 10 12 14
41 43 42 42 42 42 39 32 27 24 24 25 23 21 25 25 25 27 30 30 30 30 31 32 32 30 29 28 28 28 28 28 27 27 26 26 25 24 22 21 21 20 19 19 19 20 20 20 18 16 14 13 11 9 7 7 7 7 7 7 7 9 12
39 40 38 37 40 41 38 32 29 26 24 27 25 24 27 27 25 27 28 29 29 29 31 31 32 31 30 29 28 28 28 28 27 28 27 27 27 25 24 23 22 21 21 21 20 20 20 19 17 16 15 14 13 11 9 8 7 6 6 6 6 6 7
34 35 35 34 36 38 34 29 27 26 26 29 28 27 28 28 27 27 26 27 28 29 29 29 30 30 29 29 29 28 29 29 29 29 28 28 28 26 25 24 23 23 23 22 21 20 19 18 17 16 15 14 13 13 12 10 9 7 6 5 5 5 5
32 28 32 33 31 32 30 26 25 27 29 30 28 27 29 29 28 27 27 27 28 28 27 27 28 29 29 29 28 29 30 30 30 30 30 30 29 27 26 25 24 24 24 23 23 22 20 18 18 17 16 15 13 13 12 11 11 10 8 7 6 6 5
35 26 28 32 30 29 28 26 26 29 31 30 27 26 29 30 28 27 27 28 28 27 26 26 27 28 28 28 28 29 29 30 31 32 32 31 30 29 27 26 25 25 24 24 24 23 21 20 19 18 17 15 14 13 12 12 12 12 11 9 9 9 8
34 27 26 31 30 28 29 27 27 30 31 28 26 25 26 28 28 27 27 28 27 27 26 25 25 26 27 27 27 27 28 29 31 32 32 32 31 30 29 28 27 26 25 24 24 23 23 22 21 19 18 16 14 14 13 13 14 13 13 12 12 12 12
30 29 28 30 29 28 29 29 27 28 28 27 26 25 24 25 26 27 27 28 27 26 26 25 23 23 24 24 24 25 26 28 29 30 31 31 31 30 29 29 28 27 26 24 24 24 23 22 21 20 19 17 16 15 14 14 15 15 14 14 14 14 14
27 29 32 31 29 29 30 28 26 25 25 26 25 24 23 23 25 28 27 26 26 25 24 23 22 22 22 23 23 22 22 24 26 27 28 29 29 29 30 29 28 27 26 25 25 24 23 23 21 20 19 18 18 17 16 17 17 16 16 15 15 15 15
26 28 34 35 31 30 28 25 24 24 24 25 24 23 22 22 25 29 29 28 26 25 23 22 22 23 23 23 22 19 19 20 22 24 25 27 28 29 29 29 29 28 26 26 26 24 24 23 22 21 20 19 19 19 19 19 19 17 17 16 16 16 16
29 27 34 38 32 26 24 23 23 23 23 24 24 22 20 19 22 27 29 29 27 26 25 24 24 24 24 23 21 18 18 19 20 22 23 24 25 26 28 28 28 28 27 27 26 25 24 24 23 22 21 20 20 20 20 20 19 17 16 16 16 16 16
30 28 34 39 33 25 25 25 23 22 22 23 22 20 19 18 20 24 26 27 27 27 27 27 26 26 25 24 22 21 20 20 20 21 21 22 23 24 25 26 27 28 27 27 26 25 25 24 24 23 21 21 20 20 20 19 17 16 15 15 15 16 16
30 28 32 36 34 29 27 26 24 22 21 20 19 18 18 19 21 23 25 26 27 27 28 28 29 29 28 27 25 24 23 22 21 21 20 21 21 21 23 24 25 26 26 27 26 25 25 24 23 22 21 21 21 20 19 17 15 14 14 13 13 13 13
30 27 29 33 33 31 27 25 25 23 20 19 18 16 17 19 22 23 23 25 26 27 28 29 29 30 30 30 29 27 26 25 24 23 22 21 20 21 22 23 24 24 24 24 24 24 24 24 23 22 22 21 20 19 18 16 14 13 12 12 11 11 11
27 27 30 33 32 30 26 24 24 23 21 20 18 17 18 20 22 21 20 22 24 26 28 28 29 29 29 30 30 29 28 28 28 27 24 22 21 21 22 23 23 23 23 23 23 23 23 23 23 23 22 21 20 18 17 15 14 13 13 12 11 11 12
28 32 35 34 32 30 26 24 24 24 23 21 19 19 20 22 24 23 22 22 24 26 27 27 27 26 25 26 27 28 29 29 30 30 28 26 24 23 23 23 23 23 23 22 22 22 22 22 23 23 22 22 20 19 17 16 14 14 13 13 12 12 14
29 33 36 34 33 31 27 25 25 24 24 22 21 21 22 24 25 26 26 26 26 26 27 26 25 24 22 22 23 25 27 29 31 32 32 30 28 27 25 24 23 23 23 23 23 22 22 23 24 24 23 22 21 20 19 17 15 15 14 14 14 15 17
32 34 34 33 33 31 29 28 28 27 26 24 23 23 25 26 27 28 29 29 28 28 28 27 26 24 23 22 21 22 23 25 28 31 32 33 32 31 29 26 24 24 24 24 24 23 23 23 24 24 23 23 22 21 20 18 17 17 17 17 18 19 21
34 34 33 32 31 31 31 31 29 28 26 23 23 24 24 25 27 28 30 30 29 29 28 28 26 25 24 24 23 21 20 20 22 25 28 31 32 33 33 31 29 26 26 26 25 24 23 23 24 24 24 24 23 23 22 21 20 21 21 21 22 23 24
34 33 31 30 29 29 31 31 28 25 22 20 20 19 19 20 21 24 26 28 28 28 28 28 27 26 25 24 23 21 20 20 20 20 22 25 28 31 33 33 33 31 30 28 28 27 26 25 26 26 26 26 25 25 25 24 24 24 25 25 25 25 26
33 33 32 30 28 27 29 29 25 22 20 19 20 19 18 17 17 18 21 23 25 27 28 27 26 24 23 21 20 18 18 20 21 19 19 19 21 24 26 28 31 33 34 34 32 31 30 29 29 29 29 29 28 28 28 28 28 28 28 28 28 27 28
30 31 30 29 26 24 25 26 23 21 20 19 19 20 19 19 18 18 18 20 22 25 26 26 25 23 20 19 17 16 17 18 20 20 19 17 17 19 21 22 25 28 33 35 36 36 35 33 32 31 31 31 31 31 30 30 30 30 30 30 30 29 29
25 26 25 25 23 22 24 24 23 22 20 19 18 19 20 20 21 20 20 21 22 24 24 24 24 22 21 19 18 16 16 17 18 20 20 19 18 19 20 21 22 24 27 31 36 38 38 36 35 34 33 32 32 32 32 32 32 32 32 32 31 31 32
23 23 22 22 22 24 25 26 25 24 23 22 22 22 23 23 24 25 24 24 24 24 25 25 24 23 21 20 18 18 17 17 17 19 20 20 20 21 22 22 23 24 25 28 32 35 37 37 37 36 35 34 34 34 34 34 34 34 33 33 33 33 34
24 23 22 22 22 23 24 25 25 24 24 24 24 24 26 27 28 29 30 29 27 26 26 25 25 24 23 21 20 19 18 17 17 17 18 19 20 21 23 24 24 24 25 27 29 32 33 35 36 37 36 36 35 35 36 36 36 35 35 35 35 36 36
25 24 24 23 22 21 21 22 22 23 23 24 24 25 27 29 31 32 33 33 31 28 27 26 25 24 23 23 22 22 21 20 19 18 18 19 19 20 22 24 25 26 26 27 28 29 31 32 34 36 37 37 37 37 37 38 38 37 36 36 37 37 37
25 25 26 25 23 21 20 21 22 24 25 25 25 26 27 29 31 32 33 34 33 31 29 28 26 25 25 24 24 24 24 24 23 22 21 20 20 20 20 22 24 27 28 28 28 29 31 32 34 35 36 37 37 38 38 39 38 38 37 37 37 37 38
26 27 27 26 23 20 19 20 21 24 27 28 27 27 28 29 29 30 32 33 34 33 33 31 29 28 27 27 27 26 26 27 26 26 24 24 23 23 22 22 23 25 27 28 30 31 32 34 35 35 35 36 36 37 38 38 37 37 36 36 37 37 37
25 26 26 26 23 21 22 22 23 25 27 28 27 27 28 28 28 29 30 31 32 33 34 34 33 32 30 30 30 29 29 28 28 28 29 28 27 27 26 25 24 25 25 27 31 34 35 36 36 35 35 35 35 36 37 37 37 37 36 36 36 36 36
18 20 21 22 22 22 22 21 21 23 24 25 24 24 25 26 27 28 29 29 30 31 33 34 35 34 33 32 31 31 31 30 30 31 32 32 31 30 30 28 27 26 25 25 27 31 34 36 36 36 36 36 36 37 37 37 37 36 36 35 35 35 34
14 15 17 20 21 20 18 16 16 18 18 18 19 20 22 24 25 27 28 28 28 28 29 31 33 34 34 34 33 33 32 32 32 32 33 34 33 33 33 31 29 28 27 26 26 27 29 32 34 35 35 36 36 37 36 36 35 35 34 33 32 32 32
13 14 17 19 20 19 17 14 14 15 15 15 15 16 18 21 24 26 27 28 28 27 26 27 29 31 33 33 33 32 32 31 31 32 32 33 34 34 34 34 32 30 29 29 28 27 27 27 29 30 32 33 33 34 34 33 33 32 31 30 30 29 29
15 16 17 19 20 19 16 15 15 15 14 14 14 13 15 18 21 23 25 27 28 27 26 26 27 28 30 31 31 30 30 29 29 29 29 30 31 32 34 34 34 32 31 30 29 28 25 24 25 26 27 28 28 28 28 28 27 26 25 25 25 24 24
Wind_Direction
224 224 225 226 221 216 217 220 223 221 218 215 212 207 202 200 200 202 202 201 197 194 195 197 198 200 203 205 206 207 208 211 215 217 218 214 211 213 218 219 217 215 212 210 214 224 227 222 218 219 223 226 225 224 223 224 225 225 222 217 209 199 195
224 226 227 226 222 219 217 218 222 224 223 221 215 211 208 203 201 203 205 204 200 196 195 197 197 199 201 202 206 208 209 210 214 217 219 217 213 211 215 219 219 217 214 212 211 214 221 224 219 215 219 224 225 223 223 224 224 223 222 218 211 204 198
227 228 228 226 224 221 217 217 220 222 224 225 219 214 212 209 206 204 205 206 203 199 197 198 198 197 198 201 205 208 210 211 213 216 218 217 216 213 214 219 222 220 214 211 209 210 214 221 221 215 216 222 224 222 223 224 224 223 222 218 211 206 201
227 227 227 227 227 223 217 217 219 219 221 223 219 215 213 213 210 207 206 205 203 201 199 198 198 196 197 200 204 207 210 212 213 216 218 217 218 217 217 218 221 222 217 210 208 208 210 216 218 213 212 217 220 219 219 220 221 221 221 217 210 206 204
226 226 226 226 226 222 216 217 218 216 217 218 216 214 213 214 212 209 207 205 203 202 200 199 198 196 197 200 203 206 209 212 214 215 217 218 218 219 218 216 218 222 219 213 209 208 209 212 214 210 207 209 213 214 213 213 215 216 218 215 209 206 206
225 226 226 225 224 221 217 218 217 215 218 220 218 212 210 212 211 208 206 204 202 201 201 201 199 197 197 200 203 206 208 210 213 214 215 217 219 220 219 217 218 220 220 218 214 210 210 211 211 210 206 205 209 211 206 203 206 209 212 212 206 204 206
221 224 226 225 223 221 218 219 219 216 219 223 223 214 206 207 208 205 205 204 202 201 202 202 200 197 197 199 203 206 209 211 211 213 214 216 218 219 219 219 219 219 221 221 218 214 213 212 211 210 208 207 209 210 208 200 196 199 202 204 204 204 205
219 221 222 221 221 221 219 221 220 215 218 221 222 215 206 203 202 201 202 203 202 203 205 204 202 199 197 199 202 204 208 210 211 214 215 216 217 216 217 218 218 219 220 222 222 219 216 214 212 211 209 208 207 209 213 212 207 202 195 192 197 203 206
216 219 221 219 220 221 221 223 221 217 218 218 216 212 206 203 201 200 199 200 203 205 206 207 206 204 201 200 201 203 206 208 210 213 215 216 217 216 216 217 218 220 221 221 223 223 220 217 215 215 214 210 207 208 212 216 220 221 212 201 201 205 213
215 216 220 216 216 218 219 220 218 216 213 210 210 208 205 204 202 201 200 201 203 205 205 207 207 207 206 203 202 204 206 208 210 212 214 215 216 216 217 218 219 221 222 222 223 224 224 222 220 220 219 217 214 212 213 215 220 226 226 222 222 222 226
213 212 214 210 211 215 213 211 209 207 205 203 205 204 202 204 203 202 203 203 204 204 204 205 207 208 208 206 205 206 207 210 212 213 214 215 216 216 217 219 221 223 224 224 224 225 225 226 226 225 223 221 220 219 219 221 224 228 230 230 232 234 237
207 207 208 205 208 212 208 204 199 199 201 202 204 202 201 203 203 202 205 206 205 205 205 205 206 207 208 206 206 207 210 212 214 216 217 217 217 217 218 220 222 224 226 226 226 226 226 228 229 229 229 227 227 226 225 227 229 232 234 236 238 240 243
199 205 208 204 206 209 206 203 198 200 205 205 204 204 203 204 204 203 205 207 205 204 205 205 206 207 206 204 203 205 210 214 217 219 220 220 219 219 219 221 222 224 226 227 228 228 227 228 229 231 234 235 235 234 234 235 237 237 237 239 242 244 247
195 203 209 206 204 205 204 202 201 203 207 206 205 205 206 208 207 204 204 205 203 202 203 205 207 210 210 206 203 202 206 213 218 221 222 222 222 221 220 221 222 223 225 226 228 228 228 229 229 232 235 238 241 242 242 243 243 241 241 242 244 246 248
196 201 207 205 200 199 201 202 203 205 205 203 201 200 204 208 207 204 204 204 202 202 204 207 210 214 216 214 208 202 203 210 217 221 223 223 223 222 222 222 222 223 223 225 227 228 229 230 231 233 236 238 242 245 246 247 245 245 246 248 250 253 254
198 199 204 203 195 194 203 205 203 204 202 199 197 198 201 205 203 202 203 204 204 204 205 209 214 217 220 220 215 208 207 211 216 221 222 223 223 223 223 223 223 223 223 224 225 226 228 230 231 234 236 238 240 242 244 245 247 249 253 256 260 262 262
199 197 199 199 195 196 204 203 199 199 198 197 198 203 208 209 203 200 202 205 206 206 207 210 215 219 223 223 219 215 213 212 216 221 223 224 224 223 224 225 225 225 225 225 224 224 227 230 232 234 235 236 236 238 239 242 245 250 255 258 261 263 263
197 196 196 197 198 201 201 199 195 192 191 194 198 206 214 214 209 206 207 207 207 207 207 210 215 218 221 222 222 219 217 215 216 219 222 223 224 223 223 224 226 227 227 226 225 225 226 229 231 232 232 232 231 232 234 236 241 246 248 249 250 253 256
196 197 196 197 200 200 196 195 194 191 191 195 200 209 215 212 209 209 211 211 210 208 207 209 214 217 219 220 222 222 220 218 218 219 220 221 223 224 223 223 226 228 228 227 227 227 226 227 228 228 228 227 226 226 228 230 232 234 234 234 235 240 247
201 201 198 198 197 193 189 192 195 196 200 203 207 214 216 213 211 214 219 219 214 210 209 210 213 217 218 219 220 222 222 221 221 221 220 220 221 223 224 224 226 228 229 229 228 227 225 223 223 224 224 223 223 223 223 222 221 221 222 225 229 237 248
198 200 200 197 193 190 191 196 196 198 202 206 212 215 216 216 218 221 226 225 218 214 214 214 215 218 219 218 218 220 221 222 223 223 222 221 221 222 223 225 226 228 230 230 228 227 224 220 221 222 222 224 225 225 224 221 221 223 226 229 236 244 253
185 191 194 193 192 194 196 197 197 200 204 208 212 214 215 220 222 223 225 225 222 219 217 217 218 220 222 222 220 218 218 221 223 224 224 223 222 223 223 224 225 226 228 230 229 227 223 219 218 219 221 225 229 232 232 230 230 233 237 241 247 255 259
173 180 181 181 184 188 192 196 198 201 204 209 214 217 220 223 222 220 219 221 221 219 218 220 221 221 224 227 227 223 218 217 219 222 224 224 225 225 224 224 224 225 227 229 229 228 224 220 219 221 224 227 232 237 241 242 244 247 249 253 257 260 263
164 170 171 172 176 180 187 192 194 196 200 207 216 222 224 221 218 215 214 215 218 219 220 221 221 223 226 229 233 233 227 220 216 216 220 223 226 227 227 226 225 225 226 229 230 230 229 228 228 229 231 233 236 241 246 251 254 257 259 261 263 265 265
158 162 163 166 170 177 184 186 187 189 192 197 206 214 218 217 217 215 213 214 216 218 221 221 223 227 231 235 239 239 234 229 224 218 217 218 221 226 228 229 228 227 228 229 231 232 233 234 235 236 237 239 242 245 248 252 256 260 263 266 268 270 270
162 164 165 167 169 175 181 183 184 185 187 192 197 203 209 213 217 220 221 221 220 220 221 222 225 230 233 237 241 240 234 229 227 227 225 220 218 221 225 228 229 230 230 231 232 234 235 236 238 239 240 243 245 247 249 252 256 259 263 266 268 270 272
165 168 170 172 173 174 176 180 183 185 189 195 200 204 209 212 216 221 225 227 228 227 226 225 226 227 228 230 233 235 234 229 226 228 230 229 226 223 220 222 225 227 229 231 232 234 235 237 239 241 242 244 246 248 250 253 257 260 262 265 267 269 271
166 169 172 177 180 179 177 179 182 185 190 198 205 212 216 219 223 227 228 229 229 230 231 231 231 231 231 232 232 234 236 234 231 232 233 233 231 225 219 219 220 222 225 227 230 233 234 236 238 240 243 245 247 249 252 255 258 260 262 265 267 269 271
167 169 173 179 183 185 184 184 186 191 196 202 209 215 219 224 228 232 235 235 232 229 228 229 231 233 235 236 238 239 241 240 239 239 238 236 233 227 223 221 220 220 222 224 227 231 233 235 238 240 243 245 247 250 253 256 258 260 262 265 267 270 272
174 176 178 183 186 189 191 193 197 202 207 211 216 219 223 226 230 234 237 238 236 233 231 228 228 230 231 233 237 240 243 244 245 247 246 244 240 234 229 225 222 221 220 222 225 229 232 235 237 239 242 245 248 250 253 256 258 260 263 265 267 269 271
183 185 189 194 196 200 204 208 211 214 217 219 222 225 227 229 232 235 237 237 237 235 234 234 233 233 234 236 238 241 244 246 247 249 250 251 250 245 238 233 230 224 219 219 222 226 230 233 235 238 241 244 247 250 253 255 258 260 262 264 267 270 272
193 198 202 206 207 210 215 221 225 226 227 227 228 229 231 233 234 235 236 236 235 234 233 234 235 236 239 242 244 246 249 251 251 251 252 253 255 254 250 245 240 233 226 221 221 224 229 232 234 237 240 242 246 249 252 255 257 260 263 266 268 271 273
197 201 205 208 211 219 229 238 243 240 235 234 233 233 235 237 238 237 236 235 235 234 234 234 233 235 237 240 244 247 250 253 256 256 256 255 255 256 256 254 251 246 237 229 225 226 229 232 234 237 239 242 245 248 251 255 257 260 263 266 268 270 272
198 202 206 213 224 241 253 258 257 248 240 237 237 238 238 239 240 240 238 237 237 236 236 235 235 235 236 238 242 244 247 250 253 255 256 256 256 256 256 257 258 256 249 238 231 230 232 234 236 238 240 243 246 248 251 254 256 259 262 264 267 269 272
204 211 219 229 243 256 263 262 257 251 245 243 244 244 241 239 239 239 238 238 238 238 238 237 237 237 237 238 241 243 245 247 249 249 251 253 254 255 257 258 260 260 257 249 241 237 237 238 239 240 241 244 246 249 252 255 257 259 261 263 265 267 269
208 220 231 240 249 253 253 251 248 247 247 247 248 249 246 242 239 237 236 236 237 238 238 238 238 238 238 239 241 243 245 247 247 248 249 250 251 252 254 257 259 259 259 257 252 249 246 245 245 245 245 247 249 251 253 256 258 260 261 263 264 265 266
204 216 229 238 243 243 240 237 235 236 237 239 242 244 245 244 242 239 237 236 236 236 237 237 238 238 238 239 241 243 244 245 246 248 250 251 251 251 251 253 256 257 258 259 258 256 253 251 250 249 248 249 250 252 254 255 257 259 261 263 264 265 266
204 211 221 229 231 229 228 230 231 230 230 232 235 238 241 244 244 242 240 238 237 237 237 237 237 238 238 240 241 242 243 243 245 248 250 252 252 252 251 252 253 255 256 257 257 257 254 251 249 248 247 248 250 252 254 255 256 258 258 260 262 264 265
Height
3128 3130 3133 3135 3138 3140 3142 3144 3145 3147 3149 3151 3153 3156 3158 3160 3162 3163 3165 3167 3169 3172 3174 3176 3179 3181 3183 3185 3188 3191 3193 3195 3197 3199 3201 3203 3205 3207 3208 3209 3211 3212 3214 3215 3216 3217 3218 3219 3220 3221 3221 3222 3223 3224 3225 3226 3227 3227 3228 3229 3231 3232 3233
3125 3127 3129 3132 3135 3137 3140 3142 3144 3145 3147 3149 3151 3153 3155 3157 3159 3161 3163 3165 3167 3169 3172 3174 3176 3179 3181 3184 3186 3188 3190 3193 3195 3197 3199 3200 3202 3204 3206 3208 3209 3211 3212 3214 3215 3216 3216 3217 3218 3219 3220 3220 3222 3222 3223 3224 3225 3226 3227 3228 3229 3230 3232
3122 3123 3126 3129 3131 3134 3137 3139 3141 3143 3145 3147 3149 3151 3153 3155 3157 3159 3161 3163 3165 3167 3169 3171 3174 3176 3179 3181 3183 3186 3188 3190 3192 3194 3196 3198 3201 3203 3204 3206 3207 3209 3210 3212 3213 3214 3215 3215 3216 3217 3218 3219 3220 3221 3222 3223 3224 3224 3225 3227 3228 3229 3230
3118 3120 3123 3125 3128 3131 3134 3137 3139 3141 3143 3145 3147 3149 3151 3153 3156 3158 3160 3162 3164 3165 3166 3168 3171 3174 3176 3179 3181 3183 3185 3188 3190 3192 3195 3197 3199 3201 3202 3204 3205 3207 3208 3210 3211 3212 3213 3214 3215 3216 3217 3218 3219 3219 3220 3221 3222 3223 3224 3225 3226 3228 3229
3115 3117 3120 3122 3125 3128 3131 3134 3136 3138 3141 3143 3146 3148 3150 3152 3154 3156 3159 3160 3162 3163 3165 3167 3169 3171 3173 3176 3179 3181 3183 3186 3188 3190 3193 3195 3197 3199 3200 3202 3203 3205 3206 3208 3210 3211 3212 3213 3214 3215 3216 3217 3218 3218 3219 3220 3221 3222 3223 3224 3225 3226 3228
3111 3114 3116 3119 3122 3125 3128 3131 3134 3136 3139 3141 3144 3146 3148 3150 3152 3154 3156 3158 3160 3161 3163 3165 3166 3169 3171 3173 3176 3179 3181 3183 3186 3188 3190 3192 3194 3196 3198 3200 3202 3203 3205 3206 3208 3210 3211 3212 3213 3214 3215 3216 3217 3217 3218 3219 3220 3221 3222 3223 3224 3225 3226
3107 3110 3113 3116 3119 3122 3126 3129 3132 3134 3137 3140 3143 3145 3146 3148 3150 3152 3154 3156 3158 3159 3161 3162 3164 3166 3168 3171 3174 3176 3179 3181 3184 3186 3188 3190 3191 3193 3196 3198 3200 3202 3203 3204 3206 3208 3209 3211 3212 3213 3214 3215 3216 3217 3217 3218 3219 3220 3221 3222 3223 3224 3225
3103 3107 3110 3114 3117 3120 3124 3127 3130 3132 3135 3138 3141 3143 3144 3146 3148 3150 3152 3154 3156 3157 3159 3160 3162 3163 3166 3169 3171 3174 3177 3179 3182 3184 3186 3187 3188 3190 3193 3195 3197 3199 3201 3202 3204 3206 3208 3209 3211 3212 3213 3214 3215 3216 3217 3217 3218 3219 3220 3221 3222 3222 3223
3101 3105 3108 3112 3115 3118 3122 3125 3128 3130 3133 3136 3138 3140 3142 3144 3146 3148 3150 3152 3154 3155 3157 3159 3161 3163 3165 3167 3169 3172 3174 3177 3179 3181 3183 3185 3186 3188 3190 3192 3195 3197 3198 3201 3202 3204 3206 3208 3209 3211 3212 3213 3214 3215 3216 3217 3217 3218 3219 3220 3221 3221 3222
3100 3103 3106 3110 3113 3117 3120 3123 3126 3128 3131 3133 3135 3137 3139 3142 3144 3146 3149 3150 3152 3154 3156 3158 3160 3162 3163 3165 3167 3170 3172 3174 3176 3178 3180 3182 3184 3186 3188 3190 3192 3194 3196 3198 3200 3202 3204 3206 3207 3209 3210 3211 3212 3213 3214 3215 3216 3217 3218 3219 3220 3220 3221
3098 3101 3104 3108 3112 3115 3118 3121 3124 3126 3129 3131 3133 3135 3137 3140 3142 3145 3147 3148 3150 3153 3155 3156 3158 3160 3161 3163 3165 3167 3169 3171 3174 3175 3177 3179 3181 3184 3186 3188 3189 3191 3194 3196 3198 3200 3202 3203 3205 3206 3208 3209 3211 3212 3213 3214 3215 3216 3217 3217 3218 3219 3219
3096 3099 3102 3106 3110 3113 3116 3119 3122 3124 3127 3129 3131 3133 3136 3138 3141 3143 3145 3147 3149 3151 3153 3155 3157 3158 3160 3161 3163 3165 3167 3169 3171 3173 3175 3177 3179 3181 3184 3185 3187 3189 3191 3193 3196 3198 3200 3201 3203 3204 3206 3207 3209 3210 3211 3212 3213 3214 3215 3216 3216 3217 3218
3093 3097 3100 3104 3108 3111 3114 3117 3120 3122 3125 3127 3129 3132 3134 3137 3139 3142 3144 3146 3148 3150 3152 3153 3155 3157 3158 3159 3160 3162 3165 3167 3169 3172 3174 3175 3177 3179 3181 3183 3185 3186 3189 3191 3193 3195 3197 3199 3200 3202 3203 3205 3206 3208 3209 3210 3211 3212 3213 3214 3214 3215 3216
3091 3095 3098 3102 3106 3109 3113 3116 3118 3121 3123 3125 3128 3130 3133 3136 3138 3141 3143 3145 3147 3149 3150 3152 3154 3155 3157 3158 3158 3160 3162 3165 3168 3170 3172 3174 3175 3177 3178 3180 3182 3184 3186 3189 3190 3192 3194 3196 3198 3200 3201 3202 3204 3205 3207 3207 3208 3209 3211 3212 3212 3213 3214
3088 3092 3095 3099 3103 3107 3111 3114 3117 3119 3121 3124 3127 3129 3132 3134 3136 3139 3141 3144 3146 3148 3149 3150 3152 3153 3155 3156 3157 3158 3161 3164 3166 3168 3170 3172 3173 3174 3176 3177 3179 3182 3184 3186 3188 3190 3192 3194 3196 3197 3199 3200 3201 3202 3204 3204 3205 3207 3208 3209 3210 3211 3212
3086 3090 3093 3097 3101 3105 3109 3112 3115 3118 3120 3122 3125 3128 3130 3132 3134 3137 3139 3142 3144 3146 3148 3149 3150 3152 3153 3155 3156 3158 3160 3162 3164 3166 3168 3169 3170 3172 3174 3175 3177 3179 3181 3183 3185 3188 3190 3192 3193 3194 3196 3197 3198 3200 3200 3201 3202 3204 3206 3207 3208 3208 3209
3085 3088 3091 3095 3100 3104 3107 3111 3114 3116 3118 3121 3124 3126 3129 3131 3133 3136 3138 3140 3142 3144 3146 3147 3148 3150 3151 3153 3156 3157 3159 3160 3162 3164 3166 3167 3169 3170 3172 3173 3175 3176 3178 3180 3183 3185 3187 3189 3190 3192 3193 3195 3196 3197 3198 3199 3200 3202 3203 3204 3205 3206 3206
3084 3087 3090 3094 3098 3102 3106 3110 3113 3115 3117 3120 3123 3125 3127 3130 3132 3134 3136 3138 3140 3142 3144 3145 3146 3147 3149 3151 3154 3156 3157 3159 3161 3162 3164 3165 3167 3168 3170 3171 3172 3174 3176 3178 3180 3183 3185 3186 3187 3189 3191 3192 3193 3194 3195 3197 3198 3200 3201 3202 3203 3203 3204
3083 3086 3089 3093 3097 3101 3105 3108 3111 3114 3116 3119 3121 3124 3126 3128 3130 3132 3135 3136 3138 3140 3141 3142 3143 3145 3147 3149 3151 3153 3156 3157 3159 3160 3162 3163 3165 3166 3167 3168 3170 3171 3173 3175 3178 3180 3182 3183 3185 3186 3188 3189 3191 3192 3193 3195 3196 3198 3199 3200 3201 3202 3202
3081 3084 3088 3092 3096 3101 3105 3108 3110 3113 3116 3119 3121 3123 3125 3127 3129 3131 3133 3135 3137 3138 3139 3140 3141 3142 3144 3147 3149 3151 3153 3155 3157 3158 3160 3161 3163 3164 3165 3166 3167 3169 3171 3173 3175 3177 3179 3181 3182 3184 3185 3187 3188 3190 3191 3193 3194 3196 3197 3198 3199 3200 3200
3079 3083 3087 3092 3097 3101 3104 3107 3110 3113 3115 3118 3120 3121 3123 3125 3127 3130 3131 3133 3134 3135 3137 3138 3139 3140 3142 3144 3147 3149 3151 3152 3154 3156 3157 3159 3160 3161 3162 3164 3165 3167 3169 3171 3172 3174 3176 3178 3180 3181 3183 3184 3186 3187 3189 3190 3192 3194 3195 3196 3197 3198 3198
3078 3082 3086 3091 3096 3100 3103 3106 3109 3112 3114 3116 3118 3119 3121 3123 3125 3127 3129 3131 3132 3133 3135 3136 3137 3138 3140 3141 3144 3146 3148 3150 3151 3153 3154 3156 3157 3158 3160 3161 3163 3165 3167 3168 3170 3172 3174 3176 3177 3179 3180 3181 3183 3184 3185 3188 3190 3191 3193 3194 3195 3196 3196
3079 3083 3087 3091 3094 3097 3101 3103 3106 3109 3112 3113 3115 3116 3118 3120 3122 3124 3126 3128 3130 3131 3133 3134 3135 3137 3138 3139 3141 3143 3145 3147 3148 3149 3151 3153 3154 3155 3157 3159 3161 3163 3165 3166 3167 3169 3171 3173 3175 3176 3178 3179 3180 3181 3182 3184 3187 3188 3190 3191 3192 3192 3192
3080 3083 3086 3089 3092 3096 3098 3101 3104 3106 3109 3111 3113 3115 3116 3118 3120 3121 3123 3125 3127 3129 3130 3132 3133 3135 3136 3137 3138 3139 3141 3143 3145 3147 3148 3150 3151 3152 3155 3157 3159 3161 3162 3163 3165 3167 3169 3171 3172 3174 3175 3176 3177 3178 3179 3180 3182 3184 3185 3187 3188 3189 3189
3080 3083 3085 3089 3092 3095 3097 3100 3103 3105 3108 3110 3112 3114 3115 3117 3118 3119 3121 3122 3124 3126 3128 3130 3131 3133 3134 3135 3136 3137 3138 3139 3141 3143 3145 3147 3148 3150 3151 3154 3156 3158 3159 3161 3162 3164 3166 3168 3169 3170 3172 3173 3174 3176 3176 3177 3178 3179 3180 3181 3183 3183 3184
3079 3082 3085 3088 3091 3094 3097 3101 3103 3105 3107 3109 3111 3113 3114 3115 3117 3118 3119 3121 3122 3124 3126 3127 3129 3131 3132 3133 3134 3135 3136 3137 3138 3140 3141 3144 3146 3147 3149 3150 3152 3154 3156 3158 3160 3161 3163 3164 3166 3167 3168 3170 3171 3172 3173 3174 3175 3176 3176 3177 3178 3178 3179
3080 3083 3086 3089 3091 3095 3098 3100 3103 3105 3106 3108 3110 3112 3114 3115 3116 3118 3119 3120 3121 3123 3124 3126 3127 3129 3130 3131 3132 3132 3133 3134 3136 3137 3138 3140 3142 3144 3146 3147 3149 3150 3152 3154 3156 3157 3159 3161 3162 3163 3165 3166 3167 3168 3169 3170 3171 3172 3172 3173 3174 3174 3175
3081 3084 3086 3089 3091 3094 3097 3099 3101 3103 3105 3107 3109 3110 3112 3114 3115 3116 3118 3119 3120 3122 3123 3124 3126 3127 3128 3129 3130 3130 3131 3132 3133 3134 3136 3137 3139 3141 3142 3144 3145 3147 3148 3150 3151 3153 3155 3157 3158 3160 3161 3162 3163 3164 3165 3166 3167 3167 3168 3169 3170 3170 3170
3081 3083 3086 3088 3090 3093 3095 3098 3100 3102 3103 3105 3107 3109 3110 3112 3113 3114 3116 3117 3118 3120 3121 3123 3124 3125 3126 3127 3128 3129 3129 3130 3131 3132 3133 3134 3136 3137 3138 3140 3142 3143 3145 3146 3147 3149 3151 3153 3154 3156 3157 3158 3159 3160 3161 3162 3162 3163 3164 3165 3165 3166 3166
3080 3082 3085 3087 3089 3092 3094 3097 3099 3100 3102 3103 3105 3106 3108 3109 3111 3112 3113 3114 3116 3117 3119 3120 3121 3123 3124 3125 3126 3127 3128 3128 3129 3130 3131 3132 3133 3134 3135 3137 3138 3140 3141 3143 3144 3145 3147 3149 3150 3152 3153 3154 3155 3156 3157 3158 3158 3159 3160 3161 3161 3161 3162
3078 3080 3082 3085 3087 3090 3092 3095 3097 3098 3099 3101 3102 3104 3105 3106 3108 3109 3110 3111 3113 3114 3116 3117 3118 3120 3121 3122 3124 3125 3125 3126 3127 3128 3128 3129 3130 3131 3132 3134 3135 3136 3137 3139 3140 3142 3143 3145 3146 3147 3149 3150 3151 3152 3153 3153 3154 3155 3156 3156 3157 3157 3157
3075 3078 3080 3082 3084 3087 3090 3092 3094 3095 3096 3098 3099 3101 3102 3103 3104 3105 3106 3108 3110 3111 3112 3114 3115 3117 3118 3119 3120 3122 3122 3123 3124 3125 3126 3127 3127 3128 3129 3130 3132 3133 3134 3135 3136 3138 3139 3141 3142 3143 3145 3146 3147 3148 3149 3149 3150 3151 3152 3152 3153 3153 3153
3074 3076 3078 3080 3082 3084 3087 3089 3091 3092 3093 3095 3096 3098 3099 3100 3101 3102 3103 3104 3106 3107 3109 3110 3112 3113 3115 3116 3117 3118 3119 3120 3121 3122 3123 3123 3124 3124 3125 3127 3128 3130 3131 3132 3133 3134 3135 3136 3137 3139 3140 3142 3143 3144 3144 3145 3146 3147 3148 3148 3148 3148 3148
3072 3075 3077 3079 3080 3082 3084 3086 3088 3089 3090 3092 3093 3095 3096 3097 3097 3098 3099 3101 3102 3104 3105 3107 3108 3110 3112 3113 3114 3115 3117 3118 3118 3119 3119 3119 3120 3122 3123 3124 3125 3126 3128 3129 3129 3130 3131 3132 3133 3135 3136 3138 3139 3139 3140 3141 3142 3142 3143 3143 3143 3144 3144
3071 3073 3075 3076 3078 3080 3081 3083 3085 3086 3087 3089 3090 3091 3092 3093 3094 3095 3096 3097 3099 3100 3101 3103 3104 3106 3108 3110 3111 3112 3113 3114 3115 3115 3115 3116 3117 3119 3120 3121 3122 3123 3124 3125 3126 3127 3127 3128 3129 3131 3132 3133 3134 3134 3135 3136 3137 3137 3138 3139 3139 3139 3139
3069 3071 3073 3074 3076 3078 3079 3081 3082 3083 3084 3086 3087 3088 3089 3089 3090 3092 3093 3094 3095 3097 3098 3099 3101 3102 3104 3106 3107 3108 3109 3110 3110 3111 3112 3113 3115 3116 3117 3118 3119 3120 3120 3121 3122 3123 3123 3124 3125 3127 3128 3128 3129 3130 3131 3131 3132 3132 3133 3134 3134 3134 3134
3067 3069 3071 3072 3074 3076 3078 3079 3080 3081 3082 3083 3084 3085 3085 3086 3087 3088 3089 3091 3092 3093 3095 3096 3097 3098 3100 3101 3103 3104 3105 3106 3107 3108 3109 3110 3111 3113 3114 3114 3115 3116 3117 3117 3118 3118 3119 3120 3121 3122 3123 3123 3124 3125 3125 3126 3126 3127 3128 3128 3129 3129 3129
3066 3067 3069 3070 3073 3075 3076 3077 3078 3079 3080 3081 3082 3083 3083 3083 3084 3085 3086 3088 3089 3090 3092 3093 3094 3095 3096 3097 3098 3100 3101 3103 3104 3105 3106 3107 3108 3109 3110 3110 3111 3112 3113 3113 3114 3114 3115 3116 3117 3118 3118 3119 3120 3120 3121 3121 3122 3122 3123 3124 3124 3125 3125